Time,TemperatureF,DewpointF,PressureIn,WindDirection,WindDirectionDegrees,WindSpeedMPH,WindSpeedGustMPH,Humidity,HourlyPrecipIn,Conditions,Clouds,dailyrainin,SoftwareType,DateUTC
2013-07-26 00:04:00,61.5,54.0,30.04,SSW,193,0.0,0.0,77,0.00,,,0.00,weatherlink.com 1.10,2013-07-26 04:04:00,
2013-07-26 00:20:00,61.5,54.0,30.04,SSW,193,0.0,0.0,77,0.00,,,0.00,weatherlink.com 1.10,2013-07-26 04:20:00,
2013-07-26 00:34:00,61.5,54.0,30.04,SSW,193,0.0,0.0,76,0.00,,,0.00,weatherlink.com 1.10,2013-07-26 04:34:00,
2013-07-26 00:49:00,61.9,54.0,30.03,SSW,193,0.0,0.0,75,0.00,,,0.00,weatherlink.com 1.10,2013-07-26 04:49:00,
2013-07-26 01:05:00,62.3,54.0,30.03,SSW,195,0.0,1.0,74,0.00,,,0.00,weatherlink.com 1.10,2013-07-26 05:05:00,
2013-07-26 01:19:00,62.7,54.0,30.02,SSE,147,0.0,2.0,74,0.00,,,0.00,weatherlink.com 1.10,2013-07-26 05:19:00,
2013-07-26 01:34:00,63.4,54.0,30.02,SSE,152,0.0,3.0,72,0.00,,,0.00,weatherlink.com 1.10,2013-07-26 05:34:00,
2013-07-26 01:49:00,63.5,54.0,30.02,SSW,195,0.0,2.0,72,0.00,,,0.00,weatherlink.com 1.10,2013-07-26 05:49:00,
2013-07-26 02:05:00,63.4,54.0,30.02,SSE,148,0.0,1.0,72,0.00,,,0.00,weatherlink.com 1.10,2013-07-26 06:05:00,
2013-07-26 02:19:00,63.2,54.0,30.02,South,176,0.0,1.0,73,0.00,,,0.00,weatherlink.com 1.10,2013-07-26 06:19:00,
2013-07-26 02:34:00,63.3,55.0,30.02,SW,224,0.0,2.0,75,0.00,,,0.00,weatherlink.com 1.10,2013-07-26 06:34:00,
2013-07-26 02:50:00,63.7,56.0,30.01,SE,125,0.0,4.0,75,0.00,,,0.00,weatherlink.com 1.10,2013-07-26 06:50:00,
2013-07-26 03:05:00,63.7,55.0,30.00,SSE,154,1.0,3.0,74,0.00,,,0.00,weatherlink.com 1.10,2013-07-26 07:05:00,
2013-07-26 03:20:00,63.5,55.0,30.01,SSE,156,1.0,2.0,73,0.00,,,0.00,weatherlink.com 1.10,2013-07-26 07:20:00,
2013-07-26 03:35:00,63.8,55.0,30.01,NNE,16,0.0,2.0,72,0.00,,,0.00,weatherlink.com 1.10,2013-07-26 07:35:00,
2013-07-26 03:50:00,63.9,55.0,30.01,South,186,0.0,3.0,72,0.00,,,0.00,weatherlink.com 1.10,2013-07-26 07:50:00,
2013-07-26 04:05:00,64.4,55.0,30.01,SSE,166,2.0,5.0,72,0.00,,,0.00,weatherlink.com 1.10,2013-07-26 08:05:00,
2013-07-26 04:20:00,64.9,55.0,30.01,SW,222,0.0,3.0,71,0.00,,,0.00,weatherlink.com 1.10,2013-07-26 08:20:00,
2013-07-26 04:35:00,65.2,55.0,30.01,SSW,205,5.0,6.0,70,0.00,,,0.00,weatherlink.com 1.10,2013-07-26 08:35:00,
2013-07-26 04:50:00,65.4,55.0,30.01,SSE,167,1.0,3.0,70,0.00,,,0.00,weatherlink.com 1.10,2013-07-26 08:50:00,
2013-07-26 05:05:00,65.6,56.0,30.01,SSE,150,3.0,5.0,70,0.00,,,0.00,weatherlink.com 1.10,2013-07-26 09:05:00,
2013-07-26 05:20:00,65.7,56.0,30.00,SSW,193,2.0,6.0,70,0.00,,,0.00,weatherlink.com 1.10,2013-07-26 09:20:00,
2013-07-26 05:35:00,65.7,56.0,30.00,WSW,240,1.0,4.0,72,0.00,,,0.00,weatherlink.com 1.10,2013-07-26 09:35:00,
2013-07-26 05:50:00,65.4,56.0,29.99,SE,134,1.0,4.0,72,0.00,,,0.00,weatherlink.com 1.10,2013-07-26 09:50:00,
2013-07-26 06:05:00,65.6,56.0,30.00,SW,235,0.0,4.0,72,0.00,,,0.00,weatherlink.com 1.10,2013-07-26 10:05:00,
2013-07-26 06:20:00,65.5,56.0,30.00,SW,221,0.0,1.0,72,0.00,,,0.00,weatherlink.com 1.10,2013-07-26 10:20:00,
2013-07-26 06:35:00,65.6,57.0,30.00,SE,127,0.0,1.0,73,0.00,,,0.00,weatherlink.com 1.10,2013-07-26 10:35:00,
2013-07-26 06:50:00,65.5,57.0,30.01,WSW,243,0.0,0.0,73,0.00,,,0.00,weatherlink.com 1.10,2013-07-26 10:50:00,
2013-07-26 07:05:00,65.3,57.0,30.01,WSW,243,0.0,0.0,74,0.00,,,0.00,weatherlink.com 1.10,2013-07-26 11:05:00,
2013-07-26 07:20:00,65.4,57.0,30.00,SSE,162,0.0,0.0,75,0.00,,,0.00,weatherlink.com 1.10,2013-07-26 11:20:00,
2013-07-26 07:35:00,65.5,58.0,30.01,SSW,205,0.0,4.0,76,0.00,,,0.00,weatherlink.com 1.10,2013-07-26 11:35:00,
2013-07-26 07:50:00,65.6,58.0,30.00,SSE,158,0.0,3.0,76,0.00,,,0.00,weatherlink.com 1.10,2013-07-26 11:50:00,
2013-07-26 08:05:00,66.1,58.0,30.00,SSE,168,1.0,1.0,75,0.00,,,0.00,weatherlink.com 1.10,2013-07-26 12:05:00,
2013-07-26 08:20:00,67.1,59.0,30.00,SSE,153,2.0,5.0,74,0.00,,,0.00,weatherlink.com 1.10,2013-07-26 12:20:00,
2013-07-26 08:35:00,67.6,59.0,30.01,SW,217,0.0,6.0,73,0.00,,,0.00,weatherlink.com 1.10,2013-07-26 12:35:00,
2013-07-26 08:51:00,68.0,59.0,30.01,East,89,0.0,2.0,73,0.00,,,0.00,weatherlink.com 1.10,2013-07-26 12:51:00,
2013-07-26 09:05:00,68.4,59.0,30.01,South,186,0.0,2.0,71,0.00,,,0.00,weatherlink.com 1.10,2013-07-26 13:05:00,
2013-07-26 09:20:00,68.4,59.0,30.00,South,187,2.0,5.0,71,0.00,,,0.00,weatherlink.com 1.10,2013-07-26 13:20:00,
2013-07-26 09:35:00,68.6,59.0,30.01,SE,129,1.0,5.0,72,0.00,,,0.00,weatherlink.com 1.10,2013-07-26 13:35:00,
2013-07-26 09:50:00,68.8,59.0,30.01,SSW,212,1.0,4.0,71,0.00,,,0.00,weatherlink.com 1.10,2013-07-26 13:50:00,
2013-07-26 10:06:00,68.7,59.0,30.00,SSW,207,2.0,4.0,71,0.00,,,0.00,weatherlink.com 1.10,2013-07-26 14:06:00,
2013-07-26 10:20:00,68.8,59.0,30.00,SSE,150,2.0,5.0,71,0.00,,,0.00,weatherlink.com 1.10,2013-07-26 14:20:00,
2013-07-26 10:35:00,69.3,60.0,30.00,WSW,245,2.0,3.0,71,0.00,,,0.00,weatherlink.com 1.10,2013-07-26 14:35:00,
2013-07-26 10:50:00,69.7,60.0,30.00,South,180,1.0,2.0,71,0.00,,,0.00,weatherlink.com 1.10,2013-07-26 14:50:00,
2013-07-26 11:05:00,69.9,60.0,30.00,WSW,253,0.0,3.0,71,0.00,,,0.00,weatherlink.com 1.10,2013-07-26 15:05:00,
2013-07-26 11:20:00,70.0,60.0,30.01,SSE,162,0.0,5.0,71,0.00,,,0.00,weatherlink.com 1.10,2013-07-26 15:20:00,
2013-07-26 11:36:00,71.2,61.0,30.00,SSW,210,1.0,5.0,70,0.00,,,0.00,weatherlink.com 1.10,2013-07-26 15:36:00,
2013-07-26 11:51:00,71.5,61.0,30.01,WNW,291,2.0,7.0,70,0.00,,,0.00,weatherlink.com 1.10,2013-07-26 15:51:00,
2013-07-26 12:06:00,71.7,61.0,30.00,NNW,345,1.0,11.0,68,0.00,,,0.00,weatherlink.com 1.10,2013-07-26 16:06:00,
2013-07-26 12:21:00,72.4,61.0,30.00,SSW,200,2.0,7.0,67,0.00,,,0.00,weatherlink.com 1.10,2013-07-26 16:21:00,
2013-07-26 12:36:00,72.5,61.0,29.99,SE,132,5.0,12.0,67,0.00,,,0.00,weatherlink.com 1.10,2013-07-26 16:36:00,
2013-07-26 12:51:00,73.9,62.0,29.99,East,91,4.0,8.0,66,0.00,,,0.00,weatherlink.com 1.10,2013-07-26 16:51:00,
2013-07-26 13:06:00,73.6,61.0,29.98,SSE,149,2.0,8.0,65,0.00,,,0.00,weatherlink.com 1.10,2013-07-26 17:06:00,
2013-07-26 13:21:00,72.7,61.0,29.98,WSW,252,2.0,9.0,66,0.00,,,0.00,weatherlink.com 1.10,2013-07-26 17:21:00,
2013-07-26 13:36:00,72.8,61.0,29.97,SSW,198,3.0,9.0,66,0.00,,,0.00,weatherlink.com 1.10,2013-07-26 17:36:00,
2013-07-26 13:51:00,73.5,61.0,29.96,WNW,302,2.0,7.0,66,0.00,,,0.00,weatherlink.com 1.10,2013-07-26 17:51:00,
2013-07-26 14:06:00,74.1,62.0,29.96,West,281,2.0,9.0,65,0.00,,,0.00,weatherlink.com 1.10,2013-07-26 18:06:00,
2013-07-26 14:36:00,74.9,61.0,29.95,WNW,289,3.0,11.0,62,0.00,,,0.00,weatherlink.com 1.10,2013-07-26 18:36:00,
2013-07-26 14:51:00,74.8,61.0,29.95,ESE,122,3.0,10.0,62,0.00,,,0.00,weatherlink.com 1.10,2013-07-26 18:51:00,
2013-07-26 15:06:00,74.5,61.0,29.95,West,264,7.0,7.0,64,0.00,,,0.00,weatherlink.com 1.10,2013-07-26 19:06:00,
2013-07-26 15:21:00,73.7,61.0,29.95,WNW,287,3.0,9.0,65,0.00,,,0.00,weatherlink.com 1.10,2013-07-26 19:21:00,
2013-07-26 15:36:00,72.7,61.0,29.95,WSW,255,3.0,7.0,66,0.00,,,0.00,weatherlink.com 1.10,2013-07-26 19:36:00,
2013-07-26 15:51:00,71.6,62.0,29.94,WNW,283,2.0,4.0,71,0.00,,,0.00,weatherlink.com 1.10,2013-07-26 19:51:00,
2013-07-26 16:06:00,72.0,62.0,29.94,WSW,253,2.0,3.0,70,0.00,,,0.00,weatherlink.com 1.10,2013-07-26 20:06:00,
2013-07-26 16:21:00,71.7,62.0,29.93,South,170,0.0,6.0,71,0.00,,,0.00,weatherlink.com 1.10,2013-07-26 20:21:00,
2013-07-26 16:36:00,70.3,62.0,29.93,NW,305,2.0,8.0,75,0.01,,,0.01,weatherlink.com 1.10,2013-07-26 20:36:00,
2013-07-26 16:51:00,67.9,62.0,29.94,NW,318,3.0,10.0,81,0.01,,,0.01,weatherlink.com 1.10,2013-07-26 20:51:00,
2013-07-26 17:06:00,67.1,61.0,29.93,WNW,284,0.0,7.0,82,0.01,,,0.01,weatherlink.com 1.10,2013-07-26 21:06:00,
2013-07-26 17:21:00,66.7,61.0,29.93,SE,136,1.0,5.0,83,0.02,,,0.02,weatherlink.com 1.10,2013-07-26 21:21:00,
2013-07-26 17:36:00,66.4,61.0,29.93,WSW,248,0.0,5.0,83,0.02,,,0.03,weatherlink.com 1.10,2013-07-26 21:36:00,
2013-07-26 17:51:00,66.5,61.0,29.92,SE,141,0.0,5.0,83,0.02,,,0.03,weatherlink.com 1.10,2013-07-26 21:51:00,
2013-07-26 18:06:00,66.4,61.0,29.91,SW,236,0.0,3.0,83,0.03,,,0.04,weatherlink.com 1.10,2013-07-26 22:06:00,
2013-07-26 18:21:00,66.3,61.0,29.91,SSE,147,0.0,2.0,82,0.02,,,0.04,weatherlink.com 1.10,2013-07-26 22:21:00,
2013-07-26 18:37:00,66.2,61.0,29.91,West,276,1.0,3.0,82,0.01,,,0.04,weatherlink.com 1.10,2013-07-26 22:37:00,
2013-07-26 18:51:00,66.3,61.0,29.91,SW,232,3.0,3.0,82,0.01,,,0.04,weatherlink.com 1.10,2013-07-26 22:51:00,
2013-07-26 19:07:00,66.2,61.0,29.91,WSW,242,0.0,2.0,82,0.00,,,0.04,weatherlink.com 1.10,2013-07-26 23:07:00,
2013-07-26 19:21:00,66.0,60.0,29.91,WSW,254,0.0,1.0,81,0.04,,,0.08,weatherlink.com 1.10,2013-07-26 23:21:00,
2013-07-26 19:37:00,65.6,59.0,29.91,WSW,252,0.0,1.0,80,0.08,,,0.12,weatherlink.com 1.10,2013-07-26 23:37:00,
2013-07-26 19:51:00,65.4,59.0,29.91,SSE,159,2.0,2.0,79,0.10,,,0.14,weatherlink.com 1.10,2013-07-26 23:51:00,
2013-07-26 20:07:00,65.1,58.0,29.90,SSE,159,0.0,0.0,78,0.17,,,0.21,weatherlink.com 1.10,2013-07-27 00:07:00,
2013-07-26 20:22:00,64.8,58.0,29.89,SSE,158,0.0,0.0,78,0.16,,,0.25,weatherlink.com 1.10,2013-07-27 00:22:00,
2013-07-26 20:37:00,64.7,58.0,29.89,SSE,158,0.0,0.0,78,0.14,,,0.26,weatherlink.com 1.10,2013-07-27 00:37:00,
2013-07-26 20:52:00,64.6,58.0,29.89,SSE,158,0.0,0.0,78,0.12,,,0.26,weatherlink.com 1.10,2013-07-27 00:52:00,
2013-07-26 21:07:00,64.7,58.0,29.88,SSE,159,0.0,0.0,78,0.05,,,0.26,weatherlink.com 1.10,2013-07-27 01:07:00,
2013-07-26 21:22:00,64.8,58.0,29.88,SSW,203,0.0,1.0,78,0.00,,,0.26,weatherlink.com 1.10,2013-07-27 01:22:00,
2013-07-26 21:37:00,64.8,58.0,29.87,SE,136,0.0,0.0,78,0.00,,,0.26,weatherlink.com 1.10,2013-07-27 01:37:00,
2013-07-26 21:52:00,64.5,58.0,29.88,ESE,115,0.0,1.0,78,0.00,,,0.26,weatherlink.com 1.10,2013-07-27 01:52:00,
2013-07-26 22:07:00,64.5,58.0,29.88,South,170,0.0,0.0,78,0.00,,,0.26,weatherlink.com 1.10,2013-07-27 02:07:00,
2013-07-26 22:22:00,64.6,58.0,29.89,South,183,2.0,2.0,78,0.00,,,0.26,weatherlink.com 1.10,2013-07-27 02:22:00,
2013-07-26 22:37:00,64.8,58.0,29.89,SE,143,0.0,3.0,78,0.00,,,0.26,weatherlink.com 1.10,2013-07-27 02:37:00,
2013-07-26 22:52:00,64.9,58.0,29.89,SSE,153,1.0,5.0,78,0.00,,,0.26,weatherlink.com 1.10,2013-07-27 02:52:00,
2013-07-26 23:22:00,64.5,58.0,29.87,SSE,148,1.0,4.0,79,0.00,,,0.26,weatherlink.com 1.10,2013-07-27 03:22:00,
2013-07-26 23:37:00,64.3,58.0,29.87,SSW,195,0.0,3.0,79,0.00,,,0.26,weatherlink.com 1.10,2013-07-27 03:37:00,
2013-07-26 23:52:00,64.2,58.0,29.86,South,184,0.0,2.0,79,0.00,,,0.26,weatherlink.com 1.10,2013-07-27 03:52:00,